[keps] orb10336.2l.amsat

Ray Hoad ray.hoad at mypbmail.com
Thu Dec 2 20:37:33 PST 2010


SB KEPS @ AMSAT  $ORB10336.N
2Line Orbital Elements 10336.AMSAT

HR AMSAT ORBITAL ELEMENTS FOR AMATEUR SATELLITES IN NASA FORMAT
FROM WA5QGD FORT WORTH,TX December 2, 2010
Send Subscribe/unsubscribe to KEPS at http://www.amsat.org/mailman/listinfo/keps
BID: ORB10336.N

DECODE 2-LINE ELSETS WITH THE FOLLOWING KEY:
1 AAAAAU 00  0  0 BBBBB.BBBBBBBB  .CCCCCCCC  00000-0  00000-0 0  DDDZ
2 AAAAA EEE.EEEE FFF.FFFF GGGGGGG HHH.HHHH III.IIII JJ.JJJJJJJJKKKKKZ
KEY: A-CATALOGNUM B-EPOCHTIME C-DECAY D-ELSETNUM E-INCLINATION F-RAAN
G-ECCENTRICITY H-ARGPERIGEE I-MNANOM J-MNMOTION K-ORBITNUM Z-CHECKSUM

TO ALL RADIO AMATEURS BT

AO-07
1 07530U 74089B   10335.95527358 -.00000027  00000-0  10000-3 0 09432
2 07530 101.3965 345.2794 0011746 306.0934 053.9048 12.53580383649477
FO-29
1 24278U 96046B   10336.86297910  .00000034  00000-0  68388-4 0  4532
2 24278 098.5174 142.7345 0351302 046.3681 316.6034 13.52955092705913
SO-33
1 25509U 98061B   10336.84104656  .00000290  00000-0  45499-4 0  8504
2 25509 031.4351 274.7601 0353654 324.5059 033.2531 14.28342946632181
RS-22
1 27939U 03042A   10336.73075217  .00000086  00000-0  25182-4 0  7763
2 27939 097.8677 194.8350 0012493 246.4333 113.5561 14.63483641383602
VO-52
1 28650U 05017B   10335.86958206  .00000070  00000-0  15226-4 0 06602
2 28650 097.6721 022.5625 0028310 088.1156 272.3259 14.81862338301525
SO-67
1 35870U 09049F   10336.73065451  .00000807  00000-0  39182-4 0  3423
2 35870 097.3106 021.2110 0001919 198.2624 279.7177 15.21214704 67077
HO-68
1 36122U 09072B   10336.68207581 -.00000045  00000-0  00000 0 0  8978
2 36122 100.4472 035.2341 0007207 315.2432 044.8100 13.16282916 46385
UO-11
1 14781U 84021B   10336.72466084  .00000427  00000-0  63675-4 0  4074
2 14781 098.0340 028.7638 0010040 058.4538 301.7667 14.79866114436739
AO-16
1 20439U 90005D   10336.80646145  .00000037  00000-0  29401-4 0   585
2 20439 098.3578 288.2788 0011473 030.4377 329.7481 14.31885814 89513
LO-19
1 20442U 90005G   10335.65936074  .00000058  00000-0  36843-4 0 09674
2 20442 098.3191 292.3034 0012247 028.4606 331.7232 14.32114383089525
AO-27
1 22825U 93061C   10335.46265446  .00000073  00000-0  45425-4 0 06897
2 22825 098.5072 279.2504 0008825 132.3764 227.8155 14.29318070895940
IO-26
1 22826U 93061D   10335.56804304  .00000029  00000-0  27924-4 0 04276
2 22826 098.5017 279.8951 0009609 127.7183 232.4871 14.29576409896070
GO-32
1 25397U 98043D   10335.84896690 -.00000116  00000-0 -33199-4 0 03478
2 25397 098.3175 334.0969 0002117 115.8413 244.2986 14.23190126643893
NO-44
1 26931U 01043C   10335.82817395 -.00000169  00000-0 -33753-4 0  6208
2 26931 067.0504 132.0479 0006009 276.5908 083.4514 14.29622131478716
SO-50
1 27607U 02058C   10335.79665689  .00000015  00000-0  24114-4 0 03328
2 27607 064.5582 207.3929 0049439 011.0440 349.1715 14.71613461427046
CO-55
1 27844U 03031E   10335.56835084  .00000072  00000-0  53380-4 0 09917
2 27844 098.7086 342.1432 0010544 051.0112 309.2012 14.20750383384856
CO-57
1 27848U 03031J   10335.55213875  .00000066  00000-0  50871-4 0 09407
2 27848 098.7141 341.2567 0010496 054.9158 305.3024 14.20538396384802
AO-51
1 28375U 04025K   10336.49877346  .00000068  00000-0  33222-4 0  8378
2 28375 098.0759 320.5466 0083849 307.4487 051.9090 14.40713461337745
CP3
1 31129U 07012N   10336.60041868  .00000181  00000-0  51903-4 0  7374
2 31129 097.9203 006.9946 0103238 071.6260 289.6129 14.52343323192303
CO-65
1 32785U 08021C   10336.72093350 -.00000097  00000-0 -55648-5 0  8527
2 32785 097.8780 039.1334 0016179 096.9152 263.3896 14.81776159140444
KKS-1
1 33493U 09002B   10336.81214805  .00000605  00000-0  84578-4 0   926
2 33493 098.1033 097.9532 0019070 318.7378 041.2394 14.81223620100448
SOHLA-1
1 33496U 09002E   10335.79980376 -.00000005  00000-0  74546-5 0  2694
2 33496 098.0687 082.8190 0007218 038.6815 321.4915 14.69537373 99496
TISAT-1
1 36799U 10035E   10336.71766666  .00000403  00000-0  60135-4 0  3665
2 36799 098.1288 037.8192 0015211 187.2186 172.8809 14.80249184 21240
STUDSAT
1 36801U 10035G   10335.75263938  .00001113  00000-0  15475-3 0 01209
2 36801 098.1294 036.7251 0014015 179.1127 181.0114 14.79844552021093
NOAA-10
1 16969U 86073A   10336.52355971  .00000103  00000-0  59604-4 0  2978
2 16969 098.6416 003.7777 0013104 080.5878 279.6791 14.27436384259596
NOAA-11
1 19531U 88089A   10336.32821308 -.00000222  00000-0 -92532-4 0  3078
2 19531 098.7640 062.4465 0011818 033.2895 326.9016 14.14897208144911
NOAA-12
1 21263U 91032A   10336.43927050  .00000056  00000-0  42251-4 0  7966
2 21263 098.7605 349.5439 0013116 041.4438 318.7742 14.25670943 16374
MET-3/5
1 21655U 91056A   10335.76734603  .00000051  00000-0  10000-3 0  9774
2 21655 082.5570 190.2389 0012524 293.3976 066.5778 13.17026282927732
MET-2/21
1 22782U 93055A   10336.49253916  .00000037  00000-0  20198-4 0  9539
2 22782 082.5457 118.9344 0021057 292.4962 067.3967 13.83650740871352
OKEAN-4
1 23317U 94066A   10335.73688416  .00000313  00000-0  35410-4 0 04096
2 23317 082.5407 197.4655 0023616 052.2813 308.0555 14.82902621871287
NOAA-14
1 23455U 94089A   10336.43575012  .00000003  00000-0  25074-4 0  2863
2 23455 098.8676 055.9096 0010161 115.7020 244.5191 14.13801825821273
NOAA-15
1 25338U 98030A   10336.26667368  .00000180  00000-0  95578-4 0  6150
2 25338 098.6369 320.3278 0009911 309.1656 050.8640 14.24870177652680
RESURS
1 25394U 98043A   10336.60758351  .00000004  00000-0  19262-4 0  6653
2 25394 098.2999 345.4765 0002392 082.9246 277.2201 14.24217442644323
FENGYUN1
1 25730U 99025A   10336.83065211  .00000985  00000-0  59827-3 0  1988
2 25730 098.8019 297.5334 0020130 145.3391 214.9082 14.08447975595429
OKEAN-0
1 25860U 99039A   10336.67061298  .00000118  00000-0  25507-4 0  1651
2 25860 097.8569 303.8641 0000619 079.8616 280.2657 14.73688428611712
NOAA-16
1 26536U 00055A   10336.23927285 -.00000006  00000-0  22006-4 0   939
2 26536 099.1620 357.5947 0010090 222.6747 137.3631 14.12587890525552
NOAA-17
1 27453U 02032A   10336.46877563 -.00000047  00000-0 -25175-5 0   840
2 27453 098.4098 019.9406 0011803 010.6062 349.5377 14.24213766438658
NOAA-18
1 28654U 05018A   10336.45509675 -.00000026  00000-0  10689-4 0  5749
2 28654 098.9713 282.3937 0013721 301.5079 058.4743 14.11413693285174
NOAA-19
1 33591U 09005A   10336.47991980  .00000020  00000-0  34991-4 0  7670
2 33591 098.8063 275.1545 0014269 169.5125 190.6347 14.11106550 93643
HUBBLE
1 20580U 90037B   10335.13645736  .00000538  00000-0  28202-4 0  6824
2 20580 028.4696 229.8797 0003774 174.9798 185.0771 15.01107642929862
ISS
1 25544U 98067A   10337.03168981  .00018970  00000-0  14135-3 0  3839
2 25544 051.6469 086.4412 0007476 297.7478 038.0871 15.72785889690020
CO-58
1 28895U 05043F   10335.62349445  .00000285  00000-0  68553-4 0  7414
2 28895 097.9896 214.3242 0018959 118.9213 241.3923 14.59973295271410
FALCON
1 30776U 07006E   10336.78294639  .00000872  00000-0  64903-4 0  9709
2 30776 035.4320 100.4904 0000759 283.7945 076.2687 15.03983971205457
MAST
1 31126U 07012K   10335.62819763  .00000102  00000-0  33186-4 0 00266
2 31126 097.9187 008.8060 0095564 065.7670 295.3476 14.53648873192386
CAPE1
1 31130U 07012P   10335.56538944  .00000255  00000-0  68749-4 0   445
2 31130 097.9204 005.8359 0103626 075.2336 286.0391 14.52259200191959
COMPASS
1 32787U 08021E   10334.19851924  .00000251  00000-0  38153-4 0 08449
2 32787 097.8759 036.5064 0016806 104.3909 255.9206 14.82059765140084
AAUSAT2
1 32788U 08021F   10336.75026251  .00000836  00000-0  11115-3 0  8347
2 32788 097.8761 039.1854 0017241 099.9147 260.4069 14.82221652140478
DO-64
1 32789U 08021G   10335.72511673  .00000512  00000-0  70248-4 0 08525
2 32789 097.8845 038.8579 0016666 099.2670 261.0418 14.82464611140329
CO-66
1 32791U 08021J   10334.17857963  .00000031  00000-0  10600-4 0 08354
2 32791 097.8771 036.4768 0017270 103.2554 257.0563 14.81814114140033
RS-30
1 32953U 08025A   10336.83481866  .00000010  00000-0  00000 0 0  2638
2 32953 082.5004 284.8030 0020113 092.9215 267.4172 12.43009515114693
TACSAT-3
1 35001U 09028A   10335.96885059  .00006860  00000-0  15143-3 0 04532
2 35001 040.4562 284.9067 0021737 184.7455 175.3144 15.43860657086556
PHARMSAT
1 35002U 09028B   10335.94072729  .00005956  00000-0  13067-3 0 04272
2 35002 040.4706 282.6301 0024171 187.4758 172.5700 15.44156336086576
HAWKSAT1
1 35003U 09028C   10336.89229098  .00015317  00000-0  27048-3 0  4525
2 35003 040.4605 265.2970 0023559 218.8333 141.0748 15.49654360 86850
CP6
1 35004U 09028D   10336.88594934  .00019161  00000-0  31591-3 0  4539
2 35004 040.4625 262.5510 0023670 223.9694 135.9144 15.51465447 86877
AEROCUB3
1 35005U 09028E   10336.86807023  .00217953  00000-0  12029-2 0  5448
2 35005 040.4630 242.7671 0025280 248.2275 111.5583 15.77717362 87092
METEOR-M
1 35865U 09049A   10336.67427407  .00000176  00000-0  10000-3 0  8884
2 35865 098.7363 029.0715 0001579 238.5381 121.5610 14.21833398 62669
RS-38
1 35869U 09049E   10336.69752249  .00000177  00000-0  10000-3 0  9001
2 35869 098.7351 029.1354 0003825 237.1921 122.8849 14.21995008 62677
/EX




More information about the Keps mailing list